Tracking 25734 objects as of 26-May-2022
HD Live streaming from Space Station
objects crossing your sky now

FLOCK 3P 21

Track FLOCK 3P 21 now!
10-day predictions
FLOCK 3P 21 is classified as:


NORAD ID: 41959
Int'l Code: 2017-008M
Perigee: 443.4 km
Apogee: 449.9 km
Inclination: 97.3 °
Period: 93.4 minutes
Semi major axis: 6817 km
RCS: Unknown
Launch date: February 15, 2017
Source: United States (US)
Launch site: SRIHARIKOTA (SRI)
aabbcc
Your satellite tracking list
Your tracking list is empty




NASA's NSSDC Master Catalog

Two Line Element Set (TLE):
1 41959U 17008M   22145.73313187  .00052521  00000-0  12173-2 0  9992
2 41959  97.2796 216.4834 0004758 276.2815  83.7891 15.42240194293702
Source of the keplerian elements: AFSPC